Location: Taylor Dark Sky Site
(39.1017°N, 87.9564°W)
Time: 16:43:50
(UTC-05:00)

Amateur Radio Satellites - All Passes

Search period start: 21 August 2017 16:13
Search period end: 22 August 2017 16:13
Location: Taylor Dark Sky Site, 39.1017°N, 87.9564°W

Satellite Date Start Highest point End Downlink Frequencies (MHz)
Time Altitude Azimuth
MOZHAYETS 4 21 Aug 16:21:47 16:26:25 82° 282° (WNW) 16:31:02
ISS 21 Aug 16:35:39 16:38:53 63° 36° (NE) 16:42:07 437.550
AO-7 21 Aug 16:42:05 16:49:24 33° 262° (W) 16:56:47 .
nSIGHT-1 21 Aug 16:43:07 16:46:22 81° 37° (NE) 16:49:35 .
CUBESAT XI-V 21 Aug 16:43:43 16:48:00 33° 97° (E) 16:52:13 437.345
BEESAT 21 Aug 16:44:12 16:48:42 43° 289° (WNW) 16:53:12 436.000
Tancredo 1 21 Aug 16:51:55 16:53:50 16° 229° (SW) 16:55:44 437.200
RS-15 21 Aug 16:54:03 17:02:28 20° 10° (N) 17:10:41 29.354- 29.394
ITAMSAT 1 21 Aug 16:57:53 17:01:05 16° 268° (W) 17:04:18 435.822/435.867
XW-2C 21 Aug 17:02:58 17:04:00 11° 65° (ENE) 17:05:03 145.795 - 145.815
XW-2F 21 Aug 17:13:27 17:15:27 14° 67° (ENE) 17:17:27 145.980 - 146.000
ITUPSAT 1 21 Aug 17:19:50 17:23:21 21° 294° (WNW) 17:26:51 437.325
CUTE-I 21 Aug 17:30:59 17:35:34 29° 67° (ENE) 17:40:08 437.470
HO-68 21 Aug 17:33:30 17:37:43 17° 55° (NE) 17:41:55 435.675
KAITUO 1B 21 Aug 17:36:23 17:39:12 21° 69° (ENE) 17:42:01 145.475/437.950
DOVE 4 21 Aug 17:48:49 17:54:03 62° 259° (W) 17:59:13 437.250
LilacSat-2 21 Aug 18:00:34 18:04:18 62° 75° (ENE) 18:08:04 437.200
XW-2D 21 Aug 18:03:46 18:07:29 66° 76° (ENE) 18:11:14 145.860 - 145.880
KKS-1 21 Aug 18:04:20 18:08:46 77° 286° (WNW) 18:13:10 437.445
NUDT-PHONESAT 21 Aug 18:07:05 18:10:37 48° 74° (ENE) 18:14:11 437.300
YUBILEINY 21 Aug 18:08:50 18:15:13 22° 294° (WNW) 18:21:38 435.215
ISS 21 Aug 18:13:34 18:14:59 12° 231° (SW) 18:16:22 437.550
XW-2B 21 Aug 18:14:49 18:18:33 89° 76° (ENE) 18:22:21 145.730 - 145.750
CUBESAT XI-V 21 Aug 18:21:24 18:25:09 24° 292° (WNW) 18:28:53 437.345
XW-2C 21 Aug 18:34:06 18:37:44 48° 261° (W) 18:41:24 145.795 - 145.815
SEEDS 21 Aug 18:37:41 18:40:26 17° 67° (ENE) 18:43:13 437.485
STARS 21 Aug 18:40:37 18:44:59 75° 285° (WNW) 18:49:19 437.465
XW-2F 21 Aug 18:45:46 18:49:14 36° 262° (W) 18:52:44 145.980 - 146.000
XW-2A 21 Aug 18:57:09 18:59:31 18° 70° (ENE) 19:01:53 145.665 - 145.685
RS-15 21 Aug 19:08:09 19:19:32 43° 43° (NE) 19:30:20 29.354- 29.394
KAITUO 1B 21 Aug 19:10:04 19:13:03 23° 265° (W) 19:16:04 145.475/437.950
CUTE-I 21 Aug 19:10:39 19:15:28 34° 263° (W) 19:20:19 437.470
STRAND 1 21 Aug 19:14:10 19:17:24 17° 92° (E) 19:20:37 437.568
HO-68 21 Aug 19:17:16 19:24:26 88° 76° (ENE) 19:31:38 435.675
O/OREOS (USA 219) 21 Aug 19:17:54 19:22:22 53° 66° (ENE) 19:26:49 437.305
AAUSAT CUBESAT 2 21 Aug 19:20:01 19:23:17 23° 69° (ENE) 19:26:34 437.432
CUTE 1.7 + AOD 2 21 Aug 19:25:22 19:29:35 83° 258° (WSW) 19:33:52 437.475
UWE-3 21 Aug 19:36:42 19:40:33 36° 72° (ENE) 19:44:23 435.000/436.395/437.385
Oscar 11 21 Aug 19:44:21 19:47:06 17° 66° (ENE) 19:49:51 .
CUBEBUG 2 21 Aug 19:45:23 19:49:40 85° 77° (ENE) 19:53:53 437.445
SEEDS 21 Aug 20:11:53 20:15:48 38° 262° (W) 20:19:45 437.485
ZACube-1 21 Aug 20:14:12 20:18:14 53° 75° (ENE) 20:22:16 437.345
XW-2A 21 Aug 20:29:36 20:32:07 20° 265° (W) 20:34:39 145.665 - 145.685
AO-73 21 Aug 20:34:44 20:38:52 84° 75° (ENE) 20:43:01 145.935
STRAND 1 21 Aug 20:51:54 20:56:52 53° 288° (WNW) 21:01:49 437.568
FO-29 21 Aug 20:52:09 20:53:07 10° 87° (E) 20:54:03 435.910
AAUSAT CUBESAT 2 21 Aug 20:55:02 20:58:35 27° 264° (W) 21:02:10 437.432
O/OREOS (USA 219) 21 Aug 20:59:03 21:01:15 13° 261° (W) 21:03:27 437.305
HO-68 21 Aug 21:09:08 21:12:58 15° 270° (W) 21:16:48 435.675
UWE-3 21 Aug 21:14:28 21:17:08 16° 267° (W) 21:19:46 435.000/436.395/437.385
Oscar 11 21 Aug 21:18:49 21:22:53 41° 262° (W) 21:26:58 .
RS-15 21 Aug 21:20:53 21:32:33 62° 247° (WSW) 21:43:35 29.354- 29.394
Max Valier Satellite 21 Aug 21:26:39 21:30:01 37° 73° (ENE) 21:33:25 145.860
PCSat 21 Aug 21:45:19 21:49:39 25° 107° (ESE) 21:54:02 145.827
TIGRISAT 21 Aug 21:47:32 21:49:54 14° 92° (E) 21:52:16 435.000
DELFI C3 21 Aug 21:51:15 21:55:14 75° 258° (WSW) 21:59:15 145.870
ZACube-1 21 Aug 21:53:38 21:54:49 11° 269° (W) 21:56:01 437.345
LO-87 21 Aug 22:13:37 22:15:24 13° 67° (ENE) 22:17:10 145.935 - 145.965
EO-88 21 Aug 22:18:21 22:21:54 54° 260° (W) 22:25:29 145.990 - 145.960
ESTCUBE 1 21 Aug 22:29:25 22:32:24 18° 65° (ENE) 22:35:23 437.505/2401.250
FO-29 21 Aug 22:33:30 22:39:02 78° 285° (WNW) 22:44:13 435.910
PRISM 21 Aug 22:35:16 22:39:02 34° 98° (E) 22:42:46 437.425
UNISAT 6 21 Aug 22:47:40 22:52:01 78° 103° (ESE) 22:56:24 437.425
SO-50 21 Aug 22:58:41 23:03:10 69° 119° (ESE) 23:07:39 436.795
Max Valier Satellite 21 Aug 23:02:29 23:04:00 12° 268° (W) 23:05:32 145.860
TIGRISAT 21 Aug 23:22:39 23:26:47 46° 287° (WNW) 23:30:59 435.000
M-CUBED/EXP-1 PRIME 21 Aug 23:26:29 23:28:03 12° 94° (E) 23:29:35 437.505
PCSat 21 Aug 23:27:38 23:32:46 43° 304° (NW) 23:37:57 145.827
QB50P2 21 Aug 23:29:50 23:30:27 10° 90° (E) 23:31:04 145.880/145.840
RS-15 21 Aug 23:40:37 23:42:11 10° 267° (W) 23:43:45 29.354- 29.394
LO-87 21 Aug 23:45:11 23:48:29 34° 262° (W) 23:51:48 145.935 - 145.965
DUCHIFAT 1 21 Aug 23:57:06 23:59:41 16° 93° (E) 00:02:15 145.980
ESTCUBE 1 22 Aug 00:04:34 00:08:50 43° 261° (W) 00:13:10 437.505/2401.250
AIST 2D 22 Aug 00:06:24 00:09:58 76° 101° (ESE) 00:13:31 435.315
SPROUT 22 Aug 00:06:27 00:10:32 46° 73° (ENE) 00:14:37 437.525
VELOX 1 22 Aug 00:06:42 00:10:50 38° 71° (ENE) 00:14:59 145.980
DX 1 22 Aug 00:08:00 00:09:27 11° 62° (ENE) 00:10:54 434.975-435.025
PRISM 22 Aug 00:11:13 00:14:02 18° 294° (WNW) 00:16:50 437.425
50 SAT 22 Aug 00:23:39 00:25:57 17° 69° (ENE) 00:28:16 437.505
SO-50 22 Aug 00:41:20 00:44:04 16° 317° (NW) 00:46:50 436.795
NANOSAT C BR1 22 Aug 00:41:27 00:45:37 61° 101° (E) 00:49:45 145.865
POLYITAN 1 22 Aug 00:47:08 00:51:22 81° 102° (ESE) 00:55:35 437.675
M-CUBED/EXP-1 PRIME 22 Aug 00:58:38 01:02:53 54° 291° (WNW) 01:06:46 437.505
QB50P2 22 Aug 01:02:25 01:06:35 60° 285° (WNW) 01:10:44 145.880/145.840
EO-79 22 Aug 01:02:42 01:06:53 66° 285° (WNW) 01:11:02 145.935-145.965
UKube-1 22 Aug 01:17:02 01:21:06 41° 72° (ENE) 01:25:11 .
NO-84 22 Aug 01:17:16 01:20:11 69° 317° (NW) 01:23:01 435.350 FM
BUGSAT 1 22 Aug 01:27:09 01:31:01 45° 100° (E) 01:34:53 437.445
DUCHIFAT 1 22 Aug 01:31:36 01:35:29 38° 288° (WNW) 01:39:22 145.980
DX 1 22 Aug 01:40:42 01:45:03 67° 258° (WSW) 01:49:25 434.975-435.025
VELOX 1 22 Aug 01:44:19 01:47:23 18° 266° (W) 01:50:29 145.980
SPROUT 22 Aug 01:44:27 01:46:39 14° 268° (W) 01:48:50 437.525
Gurwin Techsat 1B 22 Aug 01:51:32 01:55:47 24° 95° (E) 02:00:00 435.225
50 SAT 22 Aug 01:55:39 01:58:26 23° 264° (W) 02:01:14 437.505
Oscar 19 22 Aug 02:07:58 02:13:05 53° 101° (E) 02:18:09 437.125/150
BEESAT 22 Aug 02:12:56 02:16:20 20° 65° (ENE) 02:19:43 436.000
NANOSAT C BR1 22 Aug 02:19:27 02:20:47 11° 296° (WNW) 02:22:05 145.865
YUBILEINY 22 Aug 02:20:48 02:28:39 36° 72° (ENE) 02:36:25 435.215
ITUPSAT 1 22 Aug 02:46:49 02:51:16 42° 71° (ENE) 02:55:44 437.325
AO-7 22 Aug 02:53:21 02:58:08 16° 91° (E) 03:02:53 .
UKube-1 22 Aug 02:54:38 02:57:17 16° 267° (W) 02:59:57 .
BUGSAT 1 22 Aug 03:03:59 03:05:58 14° 295° (WNW) 03:07:58 437.445
MOZHAYETS 4 22 Aug 03:22:08 03:26:41 82° 76° (ENE) 03:31:16
Gurwin Techsat 1B 22 Aug 03:30:53 03:35:49 40° 290° (WNW) 03:40:45 435.225
ITAMSAT 1 22 Aug 03:30:57 03:34:52 21° 94° (E) 03:38:44 435.822/435.867
CUBESAT XI-V 22 Aug 03:45:53 03:49:52 29° 69° (ENE) 03:53:53 437.345
Oscar 19 22 Aug 03:48:23 03:51:57 19° 296° (WNW) 03:55:29 437.125/150
BEESAT 22 Aug 03:49:17 03:53:46 42° 261° (W) 03:58:17 436.000
BEESAT 3 22 Aug 03:55:36 03:57:52 15° 109° (ESE) 04:00:07 437.485
YUBILEINY 22 Aug 04:17:23 04:25:33 48° 272° (W) 04:33:43 435.215
ITUPSAT 1 22 Aug 04:25:55 04:29:14 19° 266° (W) 04:32:36 437.325
AO-85 22 Aug 04:29:46 04:32:42 20° 112° (ESE) 04:35:37 145.980
AO-7 22 Aug 04:43:31 04:51:54 88° 108° (ESE) 05:00:12 .
KKS-1 22 Aug 05:00:45 05:05:13 84° 74° (ENE) 05:09:41 437.445
ITAMSAT 1 22 Aug 05:09:36 05:14:28 43° 290° (WNW) 05:19:20 435.822/435.867
CUBESAT XI-V 22 Aug 05:23:15 05:27:09 26° 265° (W) 05:31:07 437.345
BEESAT 3 22 Aug 05:31:11 05:35:01 45° 305° (NW) 05:38:55 437.485
STARS 22 Aug 05:35:34 05:39:58 82° 75° (ENE) 05:44:22 437.465
BEESAT 2 22 Aug 05:47:47 05:51:46 86° 121° (ESE) 05:55:50 435.950
DOVE 4 22 Aug 05:49:37 05:53:48 37° 97° (E) 05:57:45 437.250
CUTE-I 22 Aug 05:51:01 05:52:50 12° 90° (E) 05:54:39 437.470
XW-2B 22 Aug 05:51:28 05:51:39 10° 91° (E) 05:51:50 145.730 - 145.750
XW-2C 22 Aug 06:08:20 06:11:00 18° 94° (E) 06:13:39 145.795 - 145.815
AO-85 22 Aug 06:09:23 06:12:53 30° 308° (NW) 06:16:23 145.980
XW-2F 22 Aug 06:19:00 06:22:04 22° 95° (E) 06:25:07 145.980 - 146.000
STRAND 1 22 Aug 06:28:49 06:32:44 23° 65° (ENE) 06:36:38 437.568
PCSat 22 Aug 06:33:57 06:37:45 19° 46° (NE) 06:41:32 145.827
AO-7 22 Aug 06:37:51 06:43:36 21° 307° (NW) 06:49:20 .
KAITUO 1B 22 Aug 06:41:28 06:44:56 33° 97° (E) 06:48:24 145.475/437.950
HO-68 22 Aug 06:48:02 06:52:29 17° 91° (E) 06:56:54 435.675
LilacSat-2 22 Aug 07:08:45 07:12:38 71° 283° (WNW) 07:16:29 437.200
XW-2D 22 Aug 07:11:10 07:15:01 68° 284° (WNW) 07:18:49 145.860 - 145.880
NUDT-PHONESAT 22 Aug 07:11:49 07:15:35 84° 101° (E) 07:19:21 437.300
CUTE 1.7 + AOD 2 22 Aug 07:12:09 07:15:11 19° 93° (E) 07:18:11 437.475
XW-2B 22 Aug 07:22:21 07:26:06 51° 286° (WNW) 07:29:50 145.730 - 145.750
DOVE 4 22 Aug 07:28:05 07:31:09 18° 295° (WNW) 07:34:08 437.250
CUTE-I 22 Aug 07:28:07 07:33:26 78° 286° (WNW) 07:38:44 437.470
BEESAT 2 22 Aug 07:28:50 07:30:06 11° 319° (NW) 07:31:22 435.950
SO-50 22 Aug 07:30:54 07:35:17 44° 54° (NE) 07:39:40 436.795
CUBEBUG 2 22 Aug 07:37:47 07:40:45 18° 94° (E) 07:43:45 437.445
XW-2C 22 Aug 07:41:50 07:45:11 29° 289° (WNW) 07:48:32 145.795 - 145.815
Tancredo 1 22 Aug 07:42:43 07:44:20 14° 130° (SE) 07:45:58 437.200
NO-84 22 Aug 07:51:03 07:53:54 35° 40° (NE) 07:56:55 435.350 FM
XW-2A 22 Aug 07:51:43 07:54:28 22° 96° (E) 07:57:12 145.665 - 145.685
XW-2F 22 Aug 07:53:02 07:56:05 23° 290° (WNW) 07:59:07 145.980 - 146.000
SEEDS 22 Aug 07:56:27 08:00:25 36° 98° (E) 08:04:19 437.485
ZACube-1 22 Aug 08:05:21 08:06:46 11° 91° (E) 08:08:12 437.345
STRAND 1 22 Aug 08:06:48 08:11:36 41° 261° (W) 08:16:27 437.568
PCSat 22 Aug 08:16:16 08:21:40 69° 245° (WSW) 08:27:01 145.827
KAITUO 1B 22 Aug 08:16:19 08:18:39 16° 292° (WNW) 08:20:57 145.475/437.950
AO-73 22 Aug 08:24:21 08:27:14 17° 93° (E) 08:30:09 145.935
HO-68 22 Aug 08:33:43 08:40:54 80° 287° (WNW) 08:48:03 435.675
AAUSAT CUBESAT 2 22 Aug 08:37:24 08:41:27 47° 99° (E) 08:45:28 437.432
FO-29 22 Aug 08:42:24 08:49:27 44° 69° (ENE) 08:55:52 435.910
TIGRISAT 22 Aug 08:46:32 08:47:55 11° 64° (ENE) 08:49:19 435.000
CUTE 1.7 + AOD 2 22 Aug 08:47:10 08:51:05 35° 288° (WNW) 08:54:58 437.475
UWE-3 22 Aug 09:02:45 09:07:01 81° 283° (WNW) 09:11:23 435.000/436.395/437.385
Oscar 11 22 Aug 09:06:51 09:10:55 37° 98° (E) 09:14:57 .
SO-50 22 Aug 09:12:09 09:15:26 20° 249° (WSW) 09:18:43 436.795
CUBEBUG 2 22 Aug 09:13:36 09:17:25 34° 288° (WNW) 09:21:20 437.445
ISS 22 Aug 09:14:43 09:17:44 35° 135° (SE) 09:20:46 437.550
Tancredo 1 22 Aug 09:16:26 09:19:15 44° 326° (NW) 09:22:03 437.200
nSIGHT-1 22 Aug 09:20:59 09:24:06 43° 137° (SE) 09:27:14 .
PRISM 22 Aug 09:23:35 09:26:48 22° 68° (ENE) 09:30:02 437.425
XW-2A 22 Aug 09:24:41 09:27:01 18° 291° (WNW) 09:29:22 145.665 - 145.685
O/OREOS (USA 219) 22 Aug 09:28:50 09:33:17 80° 111° (ESE) 09:37:47 437.305
NO-84 22 Aug 09:28:57 09:31:07 17° 232° (SW) 09:33:24 435.350 FM
DELFI C3 22 Aug 09:30:37 09:32:51 15° 92° (E) 09:35:04 145.870
RS-15 22 Aug 09:31:59 09:41:12 26° 101° (E) 09:50:28 29.354- 29.394
SEEDS 22 Aug 09:32:52 09:35:48 18° 293° (WNW) 09:38:42 437.485
ZACube-1 22 Aug 09:39:07 09:43:21 58° 286° (WNW) 09:47:40 437.345
UNISAT 6 22 Aug 09:45:11 09:49:25 57° 74° (ENE) 09:53:38 437.425
EO-88 22 Aug 09:49:28 09:51:15 13° 92° (E) 09:53:01 145.990 - 145.960
AO-73 22 Aug 09:59:35 10:03:34 38° 288° (WNW) 10:07:38 145.935
M-CUBED/EXP-1 PRIME 22 Aug 10:09:49 10:12:35 16° 59° (ENE) 10:15:25 437.505
AAUSAT CUBESAT 2 22 Aug 10:14:18 10:16:28 14° 295° (WNW) 10:18:38 437.432
TIGRISAT 22 Aug 10:19:48 10:24:05 62° 259° (W) 10:28:20 435.000
HO-68 22 Aug 10:23:46 10:27:30 15° 306° (NW) 10:31:15 435.675
FO-29 22 Aug 10:27:37 10:34:26 35° 263° (W) 10:40:46 435.910
Max Valier Satellite 22 Aug 10:30:51 10:34:31 62° 101° (E) 10:38:11 145.860
AIST 2D 22 Aug 10:40:02 10:42:42 21° 70° (ENE) 10:45:24 435.315
Oscar 11 22 Aug 10:43:44 10:46:46 19° 293° (WNW) 10:49:46 .
DUCHIFAT 1 22 Aug 10:49:33 10:50:32 11° 63° (ENE) 10:51:32 145.980
ISS 22 Aug 10:51:24 10:54:15 27° 332° (NNW) 10:57:07 437.550
Tancredo 1 22 Aug 10:54:17 10:55:00 11° 344° (NNW) 10:55:43 437.200
nSIGHT-1 22 Aug 10:57:54 11:00:36 23° 333° (NNW) 11:03:19 .
PRISM 22 Aug 10:58:18 11:01:55 28° 263° (W) 11:05:32 437.425
DELFI C3 22 Aug 11:04:04 11:07:45 37° 287° (WNW) 11:11:24 145.870
O/OREOS (USA 219) 22 Aug 11:12:09 11:13:17 11° 308° (NW) 11:14:25 437.305
LO-87 22 Aug 11:13:37 11:16:02 17° 94° (E) 11:18:26 145.935 - 145.965
EO-88 22 Aug 11:21:39 11:25:02 35° 287° (WNW) 11:28:24 145.990 - 145.960
UNISAT 6 22 Aug 11:25:06 11:26:27 11° 269° (W) 11:27:48 437.425
NANOSAT C BR1 22 Aug 11:32:12 11:36:04 37° 71° (ENE) 11:39:56 145.865
JUGNU 22 Aug 11:32:41 11:34:12 11° 178° (S) 11:35:42 437.505
POLYITAN 1 22 Aug 11:38:15 11:42:17 49° 73° (ENE) 11:46:20 437.675
RS-15 22 Aug 11:39:58 11:52:14 84° 300° (WNW) 12:04:42 29.354- 29.394
M-CUBED/EXP-1 PRIME 22 Aug 11:42:03 11:46:28 57° 255° (WSW) 11:51:04 437.505
QB50P2 22 Aug 11:53:19 11:57:31 84° 74° (ENE) 12:01:44 145.880/145.840
EO-79 22 Aug 11:53:25 11:57:37 76° 76° (ENE) 12:01:49 145.935-145.965
ESTCUBE 1 22 Aug 11:57:51 12:02:11 41° 99° (E) 12:06:26 437.505/2401.250
AIST 2D 22 Aug 12:13:15 12:15:49 19° 265° (W) 12:18:24 435.315
BUGSAT 1 22 Aug 12:15:49 12:19:16 27° 70° (ENE) 12:22:42 437.445
DUCHIFAT 1 22 Aug 12:21:30 12:25:39 64° 259° (W) 12:29:47 145.980
ISS 22 Aug 12:31:00 12:31:37 10° 351° (N) 12:32:13 437.550
LO-87 22 Aug 12:46:32 12:49:26 24° 289° (WNW) 12:52:19 145.935 - 145.965
AO-85 22 Aug 13:00:52 13:03:45 17° 47° (NE) 13:06:47 145.980
NANOSAT C BR1 22 Aug 13:09:14 13:11:54 16° 267° (W) 13:14:34 145.865
Gurwin Techsat 1B 22 Aug 13:11:19 13:16:05 35° 69° (ENE) 13:20:52 435.225
POLYITAN 1 22 Aug 13:16:32 13:18:19 12° 268° (W) 13:20:07 437.675
50 SAT 22 Aug 13:18:09 13:20:33 18° 95° (E) 13:22:57 437.505
Oscar 19 22 Aug 13:23:32 13:28:38 69° 74° (ENE) 13:33:48 437.125/150
SPROUT 22 Aug 13:28:35 13:32:50 76° 283° (WNW) 13:37:03 437.525
DX 1 22 Aug 13:30:33 13:33:57 22° 95° (E) 13:37:19 434.975-435.025
VELOX 1 22 Aug 13:33:37 13:38:04 89° 279° (W) 13:42:27 145.980
ESTCUBE 1 22 Aug 13:35:31 13:38:37 18° 294° (WNW) 13:41:45 437.505/2401.250
BEESAT 3 22 Aug 13:48:43 13:52:42 68° 57° (ENE) 13:56:36 437.485
AO-7 22 Aug 13:51:00 13:57:18 25° 55° (NE) 14:03:35 .
BUGSAT 1 22 Aug 13:51:25 13:54:35 21° 265° (W) 13:57:44 437.445
RS-15 22 Aug 13:56:24 14:06:50 31° 328° (NNW) 14:17:17 29.354- 29.394
Tancredo 1 22 Aug 14:05:27 14:07:28 17° 24° (NNE) 14:09:28 437.200
BEESAT 2 22 Aug 14:06:34 14:10:19 34° 53° (NE) 14:13:59 435.950
ISS 22 Aug 14:08:11 14:09:18 11° 12° (NNE) 14:10:26 437.550
nSIGHT-1 22 Aug 14:14:11 14:15:30 12° 14° (NNE) 14:16:49 .
AO-85 22 Aug 14:40:08 14:44:25 56° 242° (WSW) 14:49:02 145.980
UKube-1 22 Aug 14:40:34 14:44:55 90° 200° (SSW) 14:49:12 .
ITAMSAT 1 22 Aug 14:47:38 14:52:07 30° 67° (ENE) 14:56:36 435.822/435.867
50 SAT 22 Aug 14:50:33 14:53:08 20° 290° (WNW) 14:55:41 437.505
ITUPSAT 1 22 Aug 14:50:37 14:52:06 11° 90° (E) 14:53:35 437.325
Gurwin Techsat 1B 22 Aug 14:51:30 14:56:01 28° 264° (W) 15:00:34 435.225
Oscar 19 22 Aug 15:06:07 15:08:26 13° 270° (W) 15:10:45 437.125/150
DX 1 22 Aug 15:06:19 15:10:08 30° 290° (WNW) 15:13:54 434.975-435.025
MOZHAYETS 4 22 Aug 15:18:54 15:22:23 21° 94° (E) 15:25:51
YUBILEINY 22 Aug 15:20:10 15:28:14 43° 87° (E) 15:36:17 435.215
SRMSAT 22 Aug 15:23:58 15:25:06 11° 184° (S) 15:26:15 437.500
Tancredo 1 22 Aug 15:40:00 15:42:51 58° 222° (SW) 15:45:41 437.200
AO-7 22 Aug 15:40:49 15:49:12 78° 253° (WSW) 15:57:36 .
ISS 22 Aug 15:43:31 15:46:33 34° 31° (NNE) 15:49:34 437.550
BEESAT 2 22 Aug 15:44:52 15:47:48 20° 249° (WSW) 15:50:43 435.950
nSIGHT-1 22 Aug 15:49:28 15:52:35 40° 33° (NNE) 15:55:39 .
BEESAT 22 Aug 15:50:04 15:54:43 51° 100° (E) 15:59:21 436.000
